Orbital Elements at Epoch 2459200.5 (2020-Dec-17.0) TDB
Reference: JPL 20 (heliocentric ecliptic J2000)
Element | Value | Uncertainty (1-sigma) | Units |
e | .107211106468444 | 4.3663e-08 | |
a | 2.726582793293383 | 2.1456e-08 | au |
q | 2.434262835146578 | 1.18e-07 | au |
i | 4.558877670223954 | 5.8699e-06 | deg |
node | 359.6216479884847 | 6.0796e-05 | deg |
peri | 249.4748800487783 | 6.8638e-05 | deg |
M | 282.2869069647476 | 3.5617e-05 | deg |
tp | 2459555.491664139257 (2021-Dec-06.99166414) | 0.00016384 | TDB |
period | 1644.471917134488 4.50 | 1.9411e-05 5.314e-08 | d yr |
n | .2189152616405297 | 2.5841e-09 | deg/d |
Q | 3.018902751440187 | 2.3757e-08 | au |
|
| | Orbit Determination Parameters
Additional Information
|